Tracking 20942 objects as of 10-Jul-2020
HD Live streaming from Space Station
objects crossing your sky now

AISTECHSAT-3

Track AISTECHSAT-3 now!
10-day predictions
AISTECHSAT-3 is classified as:


NORAD ID: 44103
Int'l Code: 2019-018AB
Perigee: 492.9 km
Apogee: 513.8 km
Inclination: 97.4 °
Period: 94.5 minutes
Semi major axis: 6874 km
RCS: Unknown
Launch date: April 1, 2019
Source: Spain (SPN)
Launch site: SRIHARIKOTA (SRI)

Uplink (MHz):
Downlink (MHz): 436.730
Beacon (MHz):
Mode: 4k8/9k6 GFSK
Call sign:
Status: Active

aabbcc
Your satellite tracking list
Your tracking list is empty




NASA's NSSDC Master Catalog

Two Line Element Set (TLE):
1 44103U 19018AB  20191.43635510  .00000665  00000-0  31034-4 0  9993
2 44103  97.4074 252.3597 0015158 107.8804 308.7832 15.23191591 70786
Source of the keplerian elements: AFSPC